Bedford, MA

11:55 PM EST on January 21, 2018 (GMT -0500)
Hanscom

Weather History for KBED - October, 2012

Change the Weather History Date:

Monday, October 29, 2012

  Actual Average Record
Temperature  
Mean Temperature 56 °F -  
Max Temperature 62 °F 58 °F 75 °F (1971)
Min Temperature 51 °F 33 °F 23 °F (2013)
Degree Days  
Heating Degree Days 9    
Growing Degree Days 6 (Base 50)    
Moisture  
Dew Point 56 °F    
Average Humidity 97    
Maximum Humidity 100    
Minimum Humidity 88    
Precipitation  
Precipitation 1.60 in - - ()
Sea Level Pressure  
Sea Level Pressure 29.47 in    
Wind  
Wind Speed 20 mph (ENE)    
Max Wind Speed 45 mph    
Max Gust Speed 67 mph    
Visibility 3 miles    
Events Rain    
Averages and records for this station are not official NWS values.
T = Trace of Precipitation, MM = Missing Value Source: NWS Daily Summary

Daily Weather History Graph

Daily Weather History Graph

Search for Another Location

Airport or City:

Trip Planner

Search our weather history database for the weather conditions in past years. The results will help you decide how hot, cold, wet, or windy it might be!

Date:

Astronomy

Oct. 29, 2012 Rise Set
Actual Time 7:15 AM EDT 5:41 PM EDT
Civil Twilight 6:46 AM EDT 6:10 PM EDT
Nautical Twilight 6:13 AM EDT 6:43 PM EDT
Astronomical Twilight 5:40 AM EDT 7:16 PM EDT
Moon 5:30 PM EDT (10/29) 7:03 AM EDT (10/29)
Length of Visible Light 11h 24m
Length of Day
10h 26m
Full, 100% of the Moon is Illuminated
Oct 29
Full
Oct 29
Full
Nov 6
Last Quarter
Nov 13
New
Nov 20
First Quarter

Hourly Weather History & Observations

Time (EDT) Temp. Dew Point Humidity Pressure Visibility Wind Dir Wind Speed Gust Speed Precip Events Conditions
12:56 AM 52.0 °F 50.0 °F 93% 29.79 in 5.0 mi NE 12.7 mph 23.0 mph 0.01 in Rain Light Rain
1:03 AM 51.8 °F 50.0 °F 94% 29.75 in 6.0 mi NE 13.8 mph 21.9 mph 0.00 in   Overcast
1:23 AM 53.6 °F 50.0 °F 88% 29.74 in 4.0 mi NE 15.0 mph 23.0 mph 0.00 in Rain Light Rain
1:56 AM 53.1 °F 51.1 °F 93% 29.78 in 4.0 mi NE 15.0 mph - 0.01 in Rain Light Rain
2:56 AM 53.1 °F 50.0 °F 89% 29.75 in 10.0 mi NE 17.3 mph 26.5 mph 0.01 in   Overcast
3:21 AM 53.6 °F 51.8 °F 94% 29.69 in 2.5 mi ENE 12.7 mph 27.6 mph 0.01 in Rain Light Rain
3:39 AM 53.6 °F 51.8 °F 94% 29.69 in 3.0 mi NE 15.0 mph 21.9 mph 0.02 in Rain Light Rain
3:56 AM 53.1 °F 51.1 °F 93% 29.72 in 6.0 mi NE 16.1 mph 26.5 mph 0.02 in   Overcast
4:05 AM 53.6 °F 51.8 °F 94% 29.67 in 5.0 mi NE 15.0 mph 29.9 mph 0.00 in Rain Light Rain
4:31 AM 53.6 °F 51.8 °F 94% 29.67 in 2.5 mi NE 16.1 mph - 0.01 in Rain Light Rain
4:54 AM 53.6 °F 51.8 °F 94% 29.66 in 3.0 mi NE 17.3 mph 24.2 mph 0.02 in Rain Light Rain
4:56 AM 53.6 °F 51.8 °F 94% 29.66 in 3.0 mi NE 15.0 mph 21.9 mph N/A Rain Light Rain
5:31 AM 53.6 °F 51.8 °F 94% 29.63 in 2.5 mi NE 16.1 mph 24.2 mph 0.00 in Rain Light Rain
5:39 AM 53.6 °F 51.8 °F 94% 29.63 in 3.0 mi NE 17.3 mph 26.5 mph 0.00 in Rain Light Rain
5:56 AM 53.1 °F 51.1 °F 93% 29.67 in 2.5 mi NE 18.4 mph 27.6 mph 0.01 in Rain Light Rain
6:19 AM 53.6 °F 51.8 °F 94% 29.62 in 3.0 mi NE 15.0 mph 26.5 mph 0.00 in Rain Light Rain
6:46 AM 53.6 °F 51.8 °F 94% 29.60 in 2.5 mi NE 18.4 mph 23.0 mph 0.01 in Rain Light Rain
6:56 AM 54.0 °F 52.0 °F 93% 29.64 in 3.0 mi NE 16.1 mph 29.9 mph 0.02 in Rain Light Rain
7:09 AM 53.6 °F 51.8 °F 94% 29.59 in 2.5 mi NE 23.0 mph 32.2 mph 0.00 in Rain Light Rain
7:16 AM 53.6 °F 51.8 °F 94% 29.59 in 2.5 mi NE 20.7 mph 32.2 mph 0.00 in Rain Light Rain
7:56 AM 54.0 °F 52.0 °F 93% 29.64 in 1.5 mi NE 18.4 mph 32.2 mph 0.03 in Rain Light Rain
8:40 AM 53.6 °F 53.6 °F 100% 29.59 in 1.8 mi NE 18.4 mph 29.9 mph 0.03 in Rain Light Rain
8:56 AM 54.0 °F 53.1 °F 97% 29.62 in 1.8 mi NE 19.6 mph 33.4 mph 0.04 in Rain Light Rain
9:13 AM 53.6 °F - N/A% 29.57 in 1.8 mi NE 21.9 mph 31.1 mph 0.01 in Rain Light Rain
9:41 AM 55.4 °F - N/A% 29.56 in 2.0 mi NE 20.7 mph 33.4 mph 0.02 in Rain Light Rain
9:56 AM 55.0 °F - N/A% 29.59 in 4.0 mi NE 20.7 mph 31.1 mph 0.02 in   Haze
10:04 AM 55.4 °F - N/A% 29.54 in 1.5 mi NE 20.7 mph 34.5 mph 0.00 in Rain Light Rain
10:52 AM 55.4 °F - N/A% 29.51 in 2.5 mi NE 23.0 mph 31.1 mph 0.05 in Rain Light Rain
10:53 AM 55.9 °F - N/A% 29.55 in 2.5 mi NE 23.0 mph 31.1 mph 0.05 in Rain Light Rain
11:10 AM 55.4 °F - N/A% 29.50 in 1.5 mi NE 24.2 mph 36.8 mph 0.01 in Rain Light Rain
11:20 AM 55.4 °F - N/A% 29.49 in 1.5 mi ENE 24.2 mph 34.5 mph 0.02 in Rain Light Rain
11:56 AM 55.4 °F - N/A% 29.46 in 1.5 mi NE 25.3 mph 38.0 mph N/A Rain Light Rain
12:22 PM 55.4 °F - N/A% 29.43 in 2.5 mi NE 26.5 mph 39.1 mph 0.01 in Rain Light Rain
12:56 PM 57.0 °F 57.0 °F 100% 29.44 in 2.0 mi ENE 25.3 mph 39.1 mph 0.02 in Rain Light Rain
1:05 PM 57.2 °F 57.2 °F 100% 29.39 in 1.5 mi NE 27.6 mph 40.3 mph 0.01 in Rain Light Rain
1:25 PM 57.2 °F 57.2 °F 100% 29.37 in 2.5 mi ENE 25.3 mph 46.0 mph 0.01 in Rain Light Rain
1:34 PM 57.2 °F 57.2 °F 100% 29.36 in 1.5 mi NE 26.5 mph 41.4 mph 0.01 in Rain Light Rain
1:56 PM 57.0 °F 57.0 °F 100% 29.38 in 1.5 mi ENE 28.8 mph 54.1 mph 0.02 in Rain Light Rain
2:03 PM 57.2 °F 57.2 °F 100% 29.32 in 2.0 mi ENE 32.2 mph 56.4 mph 0.00 in Rain Light Rain
2:43 PM 57.2 °F 57.2 °F 100% 29.29 in 0.8 mi ENE 32.2 mph 48.3 mph 0.09 in Rain Heavy Rain
2:56 PM 57.0 °F 57.0 °F 100% 29.31 in 0.8 mi ENE 34.5 mph 51.8 mph 0.25 in Rain Heavy Rain
3:03 PM 57.2 °F 57.2 °F 100% 29.27 in 1.0 mi NE 32.2 mph 51.8 mph 0.06 in Rain Heavy Rain
3:56 PM 57.9 °F 57.0 °F 97% 29.29 in 1.5 mi ENE 29.9 mph 40.3 mph 0.22 in Rain Light Rain
4:56 PM 59.0 °F 59.0 °F 100% 29.26 in 1.8 mi ENE 39.1 mph 54.1 mph 0.09 in Rain Rain
5:27 PM 60.8 °F 59.0 °F 94% 29.23 in 3.0 mi East 35.7 mph 61.0 mph 0.05 in Rain Light Rain
5:56 PM 60.1 °F 60.1 °F 100% 29.29 in 6.0 mi East 44.9 mph 66.7 mph 0.07 in Rain Light Rain
6:14 PM 60.8 °F 60.8 °F 100% 29.25 in 5.0 mi East 43.7 mph 58.7 mph 0.00 in Rain Light Rain
6:56 PM 61.0 °F 60.1 °F 97% 29.28 in 7.0 mi East 33.4 mph 51.8 mph 0.04 in Rain Light Rain
7:48 PM 60.8 °F 60.8 °F 100% 29.22 in 1.8 mi East 35.7 mph 54.1 mph 0.11 in Rain Heavy Rain
7:56 PM 60.8 °F 60.8 °F 100% 29.22 in 1.0 mi East 40.3 mph 54.1 mph N/A Rain Heavy Rain
8:09 PM 60.8 °F 60.8 °F 100% 29.22 in 4.0 mi East 33.4 mph 54.1 mph 0.11 in Rain Light Rain
8:45 PM 60.8 °F 60.8 °F 100% 29.21 in 1.8 mi East 36.8 mph 55.2 mph 0.17 in Rain Heavy Rain
8:56 PM 61.0 °F 61.0 °F 100% 29.24 in 1.0 mi East 29.9 mph 48.3 mph 0.35 in Rain Heavy Rain
9:10 PM 60.8 °F 60.8 °F 100% 29.26 in 1.5 mi SE 29.9 mph 39.1 mph 0.17 in Rain Heavy Rain
9:23 PM 60.8 °F 60.8 °F 100% 29.25 in 2.0 mi ESE 19.6 mph 38.0 mph 0.29 in Rain Heavy Rain
9:27 PM 60.8 °F 60.8 °F 100% 29.25 in 3.0 mi ESE 20.7 mph 29.9 mph 0.30 in Rain Rain
9:56 PM 61.0 °F 60.1 °F 97% 29.29 in 10.0 mi ESE 21.9 mph 32.2 mph 0.32 in   Overcast
10:04 PM 60.8 °F 60.8 °F 100% 29.26 in 10.0 mi East 26.5 mph 35.7 mph N/A   Overcast
10:14 PM 60.8 °F 60.8 °F 100% 29.26 in 7.0 mi East 24.2 mph 36.8 mph N/A   Overcast
10:56 PM 61.0 °F 60.1 °F 97% 29.32 in 5.0 mi East 18.4 mph 29.9 mph N/A   Overcast
11:56 PM 61.0 °F 61.0 °F 100% 29.34 in 6.0 mi ESE 16.1 mph 25.3 mph N/A   Overcast